,,PA_Meas_PMT16A,,PR_Meas_QMR101_102,,RH_Meas_QMH101,,SR_Meas_QMS101,,TA_Meas_QMH101,,GenWind,,GenWind,
time,status,PA,status,PR,status,RH,status,SR,status,TA,status,DirAvg,status,SpdAvg,
2012-11-19, 07:35:04,VALID,918.294,VALID,0,VALID,96.9927,VALID,152.459,VALID,20.465,VALID,345,VALID,0,
2012-11-19, 07:37:04,VALID,918.277,VALID,0,VALID,96.9012,VALID,178.46,VALID,20.543,VALID,345,VALID,0,
2012-11-19, 07:38:04,VALID,918.358,VALID,0,VALID,96.8326,VALID,213.271,VALID,20.5235,VALID,345,VALID,0,
2012-11-19, 07:39:04,VALID,918.23,VALID,0,VALID,96.7488,VALID,181.576,VALID,20.543,VALID,345,VALID,0,
2012-11-19, 07:40:04,VALID,918.224,VALID,0,VALID,96.6725,VALID,198.229,VALID,20.582,VALID,344,VALID,0,
2012-11-19, 07:41:04,VALID,918.331,VALID,0,VALID,96.5582,VALID,168.253,VALID,20.5414,VALID,314,VALID,0,
2012-11-19, 07:42:04,VALID,918.88,VALID,0,VALID,96.4362,VALID,127.533,VALID,20.5609,VALID,314,VALID,0,
2012-11-19, 07:49:04,VALID,918.591,VALID,0,VALID,95.6053,VALID,117.003,VALID,20.6585,VALID,348,VALID,0,
2012-11-19, 07:50:04,VALID,918.528,VALID,0,VALID,95.2698,VALID,122.805,VALID,20.66,VALID,348,VALID,0,
2012-11-19, 07:51:04,VALID,918.506,VALID,0,VALID,95.064,VALID,120.979,VALID,20.6421,VALID,348,VALID,0,
2012-11-19, 07:52:04,VALID,918.606,VALID,0,VALID,95.0488,VALID,128.07,VALID,20.66,VALID,348,VALID,0,
2012-11-19, 07:53:04,VALID,918.523,VALID,0,VALID,94.7591,VALID,136.02,VALID,20.6811,VALID,348,VALID,0,
2012-11-19, 07:54:04,VALID,918.627,VALID,0,VALID,94.5532,VALID,135.913,VALID,20.7006,VALID,348,VALID,0,
2012-11-19, 07:55:04,VALID,918.59,VALID,0,VALID,94.4617,VALID,142.145,VALID,20.7381,VALID,348,VALID,0,
2012-11-19, 07:56:04,VALID,918.611,VALID,0,VALID,94.233,VALID,145.26,VALID,20.7982,VALID,323,VALID,0,
2012-11-19, 07:57:04,VALID,918.586,VALID,0,VALID,94.1263,VALID,145.583,VALID,20.8356,VALID,307,VALID,0,
2012-11-19, 07:58:04,VALID,918.612,VALID,0,VALID,93.89,VALID,134.409,VALID,20.8746,VALID,6,VALID,0,
2012-11-19, 07:59:04,VALID,918.6,VALID,0,VALID,93.8519,VALID,129.037,VALID,20.9347,VALID,6,VALID,0,
2012-11-19, 08:00:04,VALID,918.602,VALID,0,VALID,93.4936,VALID,127.855,VALID,20.9738,VALID,346,VALID,0,
2012-11-19, 08:01:04,VALID,918.588,VALID,0,VALID,93.5469,VALID,129.789,VALID,20.9722,VALID,346,VALID,0,
2012-11-19, 08:02:04,VALID,918.654,VALID,0,VALID,93.4326,VALID,129.037,VALID,21.0112,VALID,346,VALID,0,
2012-11-19, 08:03:04,VALID,918.609,VALID,0,VALID,92.8227,VALID,124.202,VALID,20.9722,VALID,346,VALID,0,
2012-11-19, 08:04:04,VALID,918.626,VALID,0,VALID,92.6474,VALID,118.615,VALID,21.0112,VALID,346,VALID,0,
2012-11-19, 08:05:04,VALID,918.688,VALID,0,VALID,92.6321,VALID,120.549,VALID,21.0502,VALID,346,VALID,0,
2012-11-19, 08:06:04,VALID,918.679,VALID,0,VALID,92.5788,VALID,122.59,VALID,21.1103,VALID,346,VALID,0,
2012-11-19, 08:07:04,VALID,918.666,VALID,0,VALID,92.2052,VALID,131.186,VALID,21.1087,VALID,346,VALID,0,
2012-11-19, 08:08:04,VALID,918.764,VALID,0,VALID,92.1061,VALID,147.946,VALID,21.1494,VALID,346,VALID,0,
2012-11-19, 08:09:04,VALID,918.694,VALID,0,VALID,91.9613,VALID,171.154,VALID,21.1673,VALID,346,VALID,0,
2012-11-19, 08:10:04,VALID,918.649,VALID,0,VALID,91.8698,VALID,172.55,VALID,21.2079,VALID,346,VALID,0,
2012-11-19, 08:11:04,VALID,918.681,VALID,0,VALID,91.3285,VALID,185.336,VALID,21.1673,VALID,346,VALID,0,
2012-11-19, 08:12:04,VALID,918.722,VALID,0,VALID,91.5115,VALID,201.56,VALID,21.2063,VALID,17,VALID,0,
2012-11-19, 08:13:04,VALID,918.659,VALID,0,VALID,91.0083,VALID,288.265,VALID,21.1689,VALID,306,VALID,0,
2012-11-19, 08:14:04,VALID,918.719,VALID,0,VALID,91.6487,VALID,224.982,VALID,21.1868,VALID,306,VALID,0,
2012-11-19, 08:15:04,VALID,918.653,VALID,0,VALID,90.368,VALID,191.675,VALID,21.1282,VALID,306,VALID,0,
2012-11-19, 08:16:04,VALID,918.694,VALID,0,VALID,91.1151,VALID,252.916,VALID,21.1478,VALID,345,VALID,0,
2012-11-19, 08:17:04,VALID,918.645,VALID,0,VALID,91.1303,VALID,302.232,VALID,21.1673,VALID,325,VALID,0,
2012-11-19, 08:18:04,VALID,918.694,VALID,0,VALID,90.9321,VALID,262.371,VALID,21.2063,VALID,354,VALID,0,
2012-11-19, 08:19:04,VALID,918.77,VALID,0,VALID,91.1608,VALID,202.527,VALID,21.2843,VALID,311,VALID,0,
2012-11-19, 08:20:04,VALID,918.688,VALID,0,VALID,91.8393,VALID,350.58,VALID,21.4225,VALID,22,VALID,0,
2012-11-19, 08:21:04,VALID,918.571,VALID,0,VALID,92.0223,VALID,396.888,VALID,21.5965,VALID,25,VALID,0,
2012-11-19, 08:22:04,VALID,918.65,VALID,0,VALID,91.5115,VALID,408.599,VALID,21.7917,VALID,19,VALID,0,
2012-11-19, 08:23:04,VALID,918.549,VALID,0,VALID,90.1621,VALID,359.283,VALID,21.9283,VALID,23,VALID,0,
2012-11-19, 08:24:04,VALID,918.487,VALID,0,VALID,88.0505,VALID,337.473,VALID,22.0063,VALID,15,VALID,0,
2012-11-19, 08:25:04,VALID,918.734,VALID,0,VALID,88.1724,VALID,418.591,VALID,22.0454,VALID,5,VALID,0,
2012-11-19, 08:26:04,VALID,918.755,VALID,0,VALID,89.1559,VALID,442.335,VALID,22.0632,VALID,11,VALID,0,
2012-11-19, 08:27:04,VALID,918.741,VALID,0,VALID,87.4177,VALID,468.121,VALID,21.9656,VALID,16,VALID,0,
2012-11-19, 08:28:04,VALID,918.742,VALID,0,VALID,89.3693,VALID,487.138,VALID,21.9283,VALID,6,VALID,0,
2012-11-19, 08:29:04,VALID,918.695,VALID,0,VALID,88.6908,VALID,488.642,VALID,21.9673,VALID,344,VALID,0,
2012-11-19, 08:30:04,VALID,918.834,VALID,0,VALID,89.1254,VALID,429.013,VALID,22.0649,VALID,7,VALID,0,
2012-11-19, 08:31:04,VALID,918.688,VALID,0,VALID,89.5446,VALID,506.048,VALID,22.2991,VALID,338,VALID,0,
2012-11-19, 08:32:04,VALID,918.637,VALID,0,VALID,86.6782,VALID,389.474,VALID,22.4162,VALID,34,VALID,0,
2012-11-19, 08:33:04,VALID,918.689,VALID,0,VALID,86.0607,VALID,234.544,VALID,22.4747,VALID,298,VALID,0,
2012-11-19, 08:34:04,VALID,918.749,VALID,0,VALID,85.5042,VALID,443.839,VALID,22.3754,VALID,299,VALID,0,
2012-11-19, 08:35:04,VALID,918.624,VALID,0,VALID,87.6693,VALID,508.841,VALID,22.4535,VALID,26,VALID,0,
2012-11-19, 08:36:04,VALID,918.67,VALID,0,VALID,87.2576,VALID,512.817,VALID,22.6894,VALID,2,VALID,0,
2012-11-19, 08:37:04,VALID,918.776,VALID,0,VALID,86.8307,VALID,533.768,VALID,22.8048,VALID,24,VALID,0,
2012-11-19, 08:38:04,VALID,918.608,VALID,0,VALID,85.8015,VALID,520.123,VALID,22.9219,VALID,19,VALID,0,
2012-11-19, 08:39:04,VALID,918.686,VALID,0,VALID,84.4979,VALID,571.05,VALID,23.0586,VALID,38,VALID,0,
2012-11-19, 08:40:04,VALID,918.686,VALID,0,VALID,85.5805,VALID,641.101,VALID,23.1562,VALID,53,VALID,0,
2012-11-19, 08:41:04,VALID,918.696,VALID,0,VALID,84.0634,VALID,508.841,VALID,23.1952,VALID,45,VALID,0,
2012-11-19, 08:42:04,VALID,918.717,VALID,0,VALID,84.4065,VALID,636.696,VALID,23.2147,VALID,328,VALID,0,
2012-11-19, 08:43:04,VALID,918.705,VALID,0,VALID,83.7813,VALID,360.787,VALID,23.2928,VALID,328,VALID,0,
2012-11-19, 08:44:04,VALID,918.704,VALID,0,VALID,81.8221,VALID,295.033,VALID,23.3514,VALID,7,VALID,0,
2012-11-19, 08:45:04,VALID,918.68,VALID,0,VALID,82.3863,VALID,292.777,VALID,23.3514,VALID,339,VALID,0,
2012-11-19, 08:46:04,VALID,918.724,VALID,0,VALID,80.9226,VALID,356.275,VALID,23.2733,VALID,326,VALID,0,
2012-11-19, 08:47:04,VALID,918.714,VALID,0,VALID,79.4436,VALID,608.762,VALID,23.1171,VALID,255,VALID,0,
2012-11-19, 08:48:04,VALID,918.853,VALID,0,VALID,81.662,VALID,420.954,VALID,23.0195,VALID,255,VALID,0,
2012-11-19, 08:49:04,VALID,918.805,VALID,0,VALID,80.3127,VALID,278.702,VALID,22.9219,VALID,248,VALID,0,
2012-11-19, 08:50:04,VALID,918.942,VALID,0,VALID,82.2643,VALID,291.918,VALID,22.7463,VALID,259,VALID,0,
2012-11-19, 08:51:04,VALID,920.184,VALID,0,VALID,82.9428,VALID,258.289,VALID,22.6079,VALID,231,VALID,0,
2012-11-19, 08:52:04,VALID,918.828,VALID,0,VALID,82.7827,VALID,255.065,VALID,22.5884,VALID,204,VALID,0,
2012-11-19, 08:53:04,VALID,918.853,VALID,0,VALID,83.7737,VALID,263.983,VALID,22.6292,VALID,210,VALID,0,
2012-11-19, 08:54:04,VALID,918.795,VALID,0,VALID,81.3266,VALID,376.259,VALID,22.6665,VALID,240,VALID,0,
2012-11-19, 08:55:04,VALID,918.996,VALID,0,VALID,80.9912,VALID,558.372,VALID,22.725,VALID,198,VALID,0,
2012-11-19, 08:56:04,VALID,918.837,VALID,0,VALID,80.9149,VALID,554.181,VALID,22.7979,VALID,204,VALID,0,
2012-11-19, 08:57:04,VALID,918.755,VALID,0,VALID,81.2199,VALID,564.711,VALID,23.0568,VALID,243,VALID,0,
2012-11-19, 08:58:04,VALID,918.819,VALID,0,VALID,80.1831,VALID,230.784,VALID,23.0746,VALID,243,VALID,0,
2012-11-19, 08:59:04,VALID,918.886,VALID,0,VALID,81.1513,VALID,525.28,VALID,23.1757,VALID,243,VALID,0,
2012-11-19, 09:00:04,VALID,918.91,VALID,0,VALID,83.9338,VALID,420.417,VALID,23.3496,VALID,320,VALID,0,
2012-11-19, 09:01:04,VALID,918.815,VALID,0,VALID,79.7409,VALID,242.387,VALID,23.3496,VALID,21,VALID,0,
2012-11-19, 09:02:04,VALID,918.892,VALID,0,VALID,81.8679,VALID,228.635,VALID,23.2715,VALID,280,VALID,0,
2012-11-19, 09:03:04,VALID,918.798,VALID,0,VALID,78.6127,VALID,564.496,VALID,23.0763,VALID,246,VALID,0,
2012-11-19, 09:04:04,VALID,918.923,VALID,0,VALID,83.5679,VALID,552.57,VALID,23.0373,VALID,244,VALID,0,
2012-11-19, 09:05:04,VALID,918.931,VALID,0,VALID,83.4612,VALID,188.022,VALID,23.1952,VALID,18,VALID,0,
2012-11-19, 09:06:04,VALID,919.34,VALID,0,VALID,83.7737,VALID,178.675,VALID,23.3301,VALID,350,VALID,0,
2012-11-19, 09:07:04,VALID,919.81,VALID,0,VALID,80.1374,VALID,171.261,VALID,23.2911,VALID,336,VALID,0,
2012-11-19, 09:08:04,VALID,919.015,VALID,0,VALID,79.7562,VALID,413.326,VALID,23.2147,VALID,5,VALID,0,
2012-11-19, 09:09:04,VALID,919.132,VALID,0,VALID,81.9746,VALID,538.495,VALID,23.1349,VALID,269,VALID,0,
2012-11-19, 09:10:04,VALID,919.026,VALID,0,VALID,79.3674,VALID,589.745,VALID,23.0781,VALID,261,VALID,0,
2012-11-19, 09:11:04,VALID,918.959,VALID,0,VALID,78.4831,VALID,501.75,VALID,22.9202,VALID,261,VALID,0,
2012-11-19, 09:12:04,VALID,919.035,VALID,0,VALID,78.6737,VALID,330.489,VALID,22.8634,VALID,261,VALID,0,
2012-11-19, 09:13:04,VALID,918.932,VALID,0,VALID,80.0306,VALID,637.448,VALID,22.8634,VALID,261,VALID,0,
2012-11-19, 09:14:04,VALID,919.044,VALID,0,VALID,80.6176,VALID,639.919,VALID,23.0763,VALID,261,VALID,0,
2012-11-19, 09:15:04,VALID,918.877,VALID,0,VALID,80.5109,VALID,229.387,VALID,23.3904,VALID,1,VALID,0,
2012-11-19, 09:16:04,VALID,918.989,VALID,0,VALID,79.0015,VALID,240.453,VALID,23.5076,VALID,282,VALID,0,
2012-11-19, 09:17:04,VALID,918.937,VALID,0,VALID,77.1871,VALID,278.165,VALID,23.3904,VALID,261,VALID,0,
2012-11-19, 09:18:04,VALID,918.983,VALID,0,VALID,79.2073,VALID,601.563,VALID,23.2715,VALID,12,VALID,0,
2012-11-19, 09:19:04,VALID,919.579,VALID,0,VALID,78.6965,VALID,408.814,VALID,23.3301,VALID,266,VALID,0,
2012-11-19, 09:20:04,VALID,918.987,VALID,0,VALID,79.0777,VALID,315.555,VALID,23.3301,VALID,259,VALID,0,
2012-11-19, 09:21:04,VALID,918.982,VALID,0,VALID,80.0078,VALID,394.416,VALID,23.3496,VALID,192,VALID,0,
2012-11-19, 09:22:04,VALID,918.987,VALID,0,VALID,78.9786,VALID,507.767,VALID,23.3691,VALID,130,VALID,0,
2012-11-19, 09:23:04,VALID,919.074,VALID,0,VALID,78.7041,VALID,638.953,VALID,23.5058,VALID,173,VALID,0,
2012-11-19, 09:24:04,VALID,919.016,VALID,0,VALID,80.3889,VALID,631.754,VALID,23.7986,VALID,95,VALID,0,
2012-11-19, 09:25:04,VALID,919.141,VALID,0,VALID,77.9418,VALID,497.882,VALID,24.0719,VALID,294,VALID,0,
2012-11-19, 09:26:04,VALID,919.091,VALID,0,VALID,76.5391,VALID,348.647,VALID,24.15,VALID,301,VALID,0,
2012-11-19, 09:27:04,VALID,918.994,VALID,0,VALID,78.3382,VALID,384.102,VALID,24.0524,VALID,301,VALID,0,
2012-11-19, 09:28:04,VALID,919.07,VALID,0,VALID,77.2481,VALID,406.772,VALID,23.9548,VALID,275,VALID,0,
2012-11-19, 09:29:04,VALID,919.176,VALID,0,VALID,77.3472,VALID,475.642,VALID,23.7596,VALID,258,VALID,0,
2012-11-19, 09:30:04,VALID,919.36,VALID,0,VALID,77.6674,VALID,498.527,VALID,23.662,VALID,233,VALID,0,
2012-11-19, 09:31:04,VALID,919.07,VALID,0,VALID,78.1171,VALID,468.873,VALID,23.8358,VALID,233,VALID,0,
2012-11-19, 09:32:04,VALID,919.039,VALID,0,VALID,75.6929,VALID,386.896,VALID,24.111,VALID,238,VALID,0,
2012-11-19, 09:33:04,VALID,919.108,VALID,0,VALID,77.088,VALID,367.126,VALID,23.9158,VALID,211,VALID,0,
2012-11-19, 09:34:04,VALID,918.989,VALID,0,VALID,79.1768,VALID,349.291,VALID,23.9761,VALID,210,VALID,0,
2012-11-19, 09:35:04,VALID,919.276,VALID,0,VALID,77.7131,VALID,335.646,VALID,24.0152,VALID,225,VALID,0,
2012-11-19, 09:36:04,VALID,919.159,VALID,0,VALID,78.0943,VALID,308.141,VALID,24.0933,VALID,224,VALID,0,
2012-11-19, 09:37:04,VALID,919.036,VALID,0,VALID,77.9723,VALID,273.975,VALID,24.0933,VALID,252,VALID,0,
2012-11-19, 09:38:04,VALID,919.106,VALID,0,VALID,78.6279,VALID,251.95,VALID,23.9957,VALID,242,VALID,0,
2012-11-19, 09:39:04,VALID,919.032,VALID,0,VALID,79.6952,VALID,245.718,VALID,23.9566,VALID,242,VALID,0,
2012-11-19, 09:40:04,VALID,919.105,VALID,0,VALID,80.3203,VALID,262.479,VALID,24.0152,VALID,242,VALID,0,
2012-11-19, 09:41:04,VALID,919.081,VALID,0,VALID,78.6432,VALID,294.604,VALID,24.0152,VALID,242,VALID,0,
2012-11-19, 09:42:04,VALID,919.037,VALID,0,VALID,81.0293,VALID,303.091,VALID,24.0738,VALID,242,VALID,0,
2012-11-19, 09:43:04,VALID,919.243,VALID,0,VALID,77.1642,VALID,302.554,VALID,24.111,VALID,234,VALID,0,
2012-11-19, 09:44:04,VALID,919.049,VALID,0,VALID,77.3167,VALID,335.431,VALID,24.269,VALID,332,VALID,0,
2012-11-19, 09:45:04,VALID,919.007,VALID,0,VALID,75.4794,VALID,343.812,VALID,24.4253,VALID,251,VALID,0,
2012-11-19, 09:46:04,VALID,919.081,VALID,0,VALID,74.3359,VALID,396.78,VALID,24.5424,VALID,223,VALID,0,
2012-11-19, 09:47:04,VALID,919.026,VALID,0,VALID,74.3131,VALID,379.804,VALID,24.6382,VALID,223,VALID,0,
2012-11-19, 09:48:04,VALID,919.077,VALID,0,VALID,75.3575,VALID,404.516,VALID,24.7163,VALID,251,VALID,0,
2012-11-19, 09:49:04,VALID,919.568,VALID,0,VALID,75.0297,VALID,460.815,VALID,24.6559,VALID,293,VALID,0,
2012-11-19, 09:50:04,VALID,919.272,VALID,0,VALID,76.1046,VALID,555.901,VALID,24.5778,VALID,330,VALID,0,
2012-11-19, 09:51:04,VALID,919.03,VALID,0,VALID,77.6826,VALID,644.969,VALID,24.6577,VALID,331,VALID,0,
2012-11-19, 09:52:04,VALID,919.096,VALID,0,VALID,75.5023,VALID,628.746,VALID,24.5973,VALID,331,VALID,0,
2012-11-19, 09:53:04,VALID,918.96,VALID,0,VALID,77.6445,VALID,463.501,VALID,24.6754,VALID,356,VALID,0,
2012-11-19, 09:54:04,VALID,918.989,VALID,0,VALID,74.6637,VALID,344.886,VALID,24.773,VALID,333,VALID,0,
2012-11-19, 09:55:04,VALID,919.04,VALID,0,VALID,75.9597,VALID,363.688,VALID,24.5778,VALID,278,VALID,0,
2012-11-19, 09:56:04,VALID,918.994,VALID,0,VALID,76.7907,VALID,590.604,VALID,24.5192,VALID,202,VALID,0,
2012-11-19, 09:57:04,VALID,918.946,VALID,0,VALID,77.0575,VALID,848.678,VALID,24.6949,VALID,60,VALID,0,
2012-11-19, 09:58:04,VALID,919.009,VALID,0,VALID,74.8162,VALID,882.737,VALID,25.0074,VALID,38,VALID,0,
2012-11-19, 09:59:04,VALID,919.056,VALID,0,VALID,72.8799,VALID,915.828,VALID,25.2788,VALID,337,VALID,0,
2012-11-19, 10:00:04,VALID,918.998,VALID,0,VALID,72.0032,VALID,836.214,VALID,25.4175,VALID,266,VALID,0,
2012-11-19, 10:01:04,VALID,919.196,VALID,0,VALID,72.9027,VALID,581.794,VALID,25.5737,VALID,337,VALID,0,
2012-11-19, 10:02:04,VALID,919.044,VALID,0,VALID,71.805,VALID,902.506,VALID,25.7495,VALID,283,VALID,0,
2012-11-19, 10:03:04,VALID,919.243,VALID,0,VALID,70.3717,VALID,939.143,VALID,25.5737,VALID,250,VALID,0,
2012-11-19, 10:04:04,VALID,919.063,VALID,0,VALID,70.6081,VALID,580.612,VALID,25.478,VALID,295,VALID,0,
2012-11-19, 10:05:04,VALID,919.075,VALID,0,VALID,71.5458,VALID,557.512,VALID,25.5366,VALID,51,VALID,0,
2012-11-19, 10:06:04,VALID,919.013,VALID,0,VALID,71.6372,VALID,432.128,VALID,25.7124,VALID,51,VALID,0,
2012-11-19, 10:07:04,VALID,919.249,VALID,0,VALID,74.6104,VALID,367.126,VALID,25.8101,VALID,289,VALID,0,
2012-11-19, 10:08:04,VALID,918.942,VALID,0,VALID,72.7198,VALID,322.861,VALID,25.6929,VALID,31,VALID,0,
2012-11-19, 10:09:04,VALID,919.272,VALID,0,VALID,73.444,VALID,313.728,VALID,25.5386,VALID,339,VALID,0,
2012-11-19, 10:10:04,VALID,919.121,VALID,0,VALID,71.3857,VALID,313.406,VALID,25.4175,VALID,300,VALID,0,
2012-11-19, 10:11:04,VALID,918.828,VALID,0,VALID,73.2382,VALID,323.613,VALID,25.3218,VALID,300,VALID,0,
2012-11-19, 10:12:04,VALID,918.97,VALID,0,VALID,71.9803,VALID,328.877,VALID,25.1069,VALID,300,VALID,0,
2012-11-19, 10:13:04,VALID,919.182,VALID,0,VALID,73.3144,VALID,328.125,VALID,24.9878,VALID,300,VALID,0,
2012-11-19, 10:14:04,VALID,919.068,VALID,0,VALID,75.0373,VALID,335.754,VALID,24.9507,VALID,300,VALID,0,
2012-11-19, 10:15:04,VALID,919.018,VALID,0,VALID,76.2037,VALID,340.159,VALID,24.9897,VALID,34,VALID,0,
2012-11-19, 10:16:04,VALID,918.923,VALID,0,VALID,73.5888,VALID,478.006,VALID,24.9897,VALID,262,VALID,0,
2012-11-19, 10:17:04,VALID,919.048,VALID,0,VALID,75.1898,VALID,384.962,VALID,24.9116,VALID,250,VALID,0,
2012-11-19, 10:18:04,VALID,918.909,VALID,0,VALID,74.0996,VALID,422.351,VALID,24.8511,VALID,258,VALID,0,
2012-11-19, 10:19:04,VALID,919.018,VALID,0,VALID,74.8315,VALID,351.118,VALID,24.9097,VALID,345,VALID,0,
2012-11-19, 10:20:04,VALID,918.959,VALID,0,VALID,75.4794,VALID,360.68,VALID,24.9702,INVALID,360,VALID,0,
2012-11-19, 10:21:04,VALID,919.022,VALID,0,VALID,73.6498,VALID,340.803,VALID,25.0483,VALID,345,VALID,0,
2012-11-19, 10:22:04,INVALID,921.53,VALID,0,VALID,76.5162,VALID,314.158,VALID,25.0855,VALID,345,VALID,0,
2012-11-19, 10:23:04,VALID,919.05,VALID,0,VALID,75.3651,VALID,319.315,VALID,25.185,VALID,345,VALID,0,
2012-11-19, 10:24:04,VALID,919.069,VALID,0,VALID,74.9001,VALID,326.943,VALID,25.2808,VALID,22,VALID,0,
2012-11-19, 10:25:04,VALID,919.036,VALID,0,VALID,78.0714,VALID,331.349,VALID,25.2612,VALID,16,VALID,0,
2012-11-19, 10:26:04,VALID,919.002,VALID,0,VALID,76.7525,VALID,420.847,VALID,25.146,VALID,51,VALID,1.39453,
2012-11-19, 10:27:04,VALID,919.042,VALID,0,VALID,77.7283,VALID,622.192,VALID,25.146,VALID,38,VALID,1.88359,
2012-11-19, 10:28:04,VALID,919.021,VALID,0,VALID,77.3014,VALID,608.869,VALID,25.2632,VALID,31,VALID,1.60117,
2012-11-19, 10:29:04,VALID,919.045,VALID,0,VALID,76.6001,VALID,560.521,VALID,25.4389,VALID,37,VALID,1.02852,
2012-11-19, 10:30:04,VALID,919.069,VALID,0,VALID,76.257,VALID,629.283,VALID,25.5933,VALID,33,VALID,0,
2012-11-19, 10:31:04,VALID,919.068,VALID,0,VALID,74.679,VALID,505.94,VALID,25.7124,VALID,344,VALID,0,
2012-11-19, 10:32:04,VALID,919.083,VALID,0,VALID,72.6664,VALID,633.688,VALID,25.6147,VALID,114,VALID,0,
2012-11-19, 10:33:04,VALID,919.052,VALID,0,VALID,72.1556,VALID,500.998,VALID,25.6714,VALID,113,VALID,0,
2012-11-19, 10:34:04,VALID,919.073,VALID,0,VALID,72.209,VALID,370.242,VALID,25.7515,VALID,150,VALID,0,
2012-11-19, 10:35:04,VALID,919.091,VALID,0,VALID,72.148,VALID,351.655,VALID,25.8101,VALID,64,VALID,0,
2012-11-19, 10:36:04,VALID,919.07,VALID,0,VALID,74.2826,VALID,356.919,VALID,25.6538,VALID,56,VALID,0,
2012-11-19, 10:37:04,VALID,919.076,VALID,0,VALID,74.2597,VALID,355.63,VALID,25.6128,VALID,18,VALID,0,
2012-11-19, 10:38:04,VALID,919.062,VALID,0,VALID,71.2179,VALID,350.903,VALID,25.5757,VALID,42,VALID,0,
2012-11-19, 10:39:04,VALID,919.035,VALID,0,VALID,73.8633,VALID,359.391,VALID,25.4585,VALID,12,VALID,0,
2012-11-19, 10:40:04,VALID,919.06,VALID,0,VALID,73.3982,VALID,377.548,VALID,25.4585,VALID,347,VALID,0,
2012-11-19, 10:41:04,VALID,919.049,VALID,0,VALID,73.9776,VALID,455.228,VALID,25.4585,VALID,348,VALID,0,
2012-11-19, 10:42:04,VALID,919.03,VALID,0,VALID,74.679,VALID,563.421,VALID,25.5366,VALID,356,VALID,0,
2012-11-19, 10:43:04,VALID,919.019,VALID,0,VALID,73.4211,VALID,353.267,VALID,25.5952,VALID,34,VALID,0,
2012-11-19, 10:44:04,VALID,919.004,VALID,0,VALID,73.848,VALID,321.786,VALID,25.6733,VALID,38,VALID,0,
2012-11-19, 10:45:04,VALID,919.006,VALID,0,VALID,74.1225,VALID,308.571,VALID,25.5561,VALID,1,VALID,0,
2012-11-19, 10:46:04,VALID,919.006,VALID,0,VALID,74.6256,VALID,312.224,VALID,25.478,VALID,31,VALID,0,
2012-11-19, 10:47:04,VALID,918.997,VALID,0,VALID,76.3333,VALID,306.852,VALID,25.3589,VALID,39,VALID,0.0960938,
2012-11-19, 10:48:04,VALID,919.034,VALID,0,VALID,76.2799,VALID,312.976,VALID,25.2417,VALID,43,VALID,0,
2012-11-19, 10:49:04,VALID,919.005,VALID,0,VALID,76.9965,VALID,328.662,VALID,25.1655,VALID,300,VALID,0,
2012-11-19, 10:50:04,VALID,918.974,VALID,0,VALID,77.6064,VALID,348.002,VALID,25.0679,VALID,29,VALID,0,
2012-11-19, 10:51:04,VALID,918.915,VALID,0,VALID,79.0701,VALID,371.531,VALID,25.0093,VALID,36,VALID,0,
2012-11-19, 10:52:04,VALID,918.962,VALID,0,VALID,78.6432,VALID,468.766,VALID,24.9116,VALID,11,VALID,0,
2012-11-19, 10:53:04,VALID,918.936,VALID,0,VALID,79.2759,VALID,451.468,VALID,24.9897,VALID,40,VALID,0,
2012-11-19, 10:54:04,VALID,918.911,VALID,0,VALID,78.14,VALID,552.462,VALID,25.0269,VALID,18,VALID,0,
2012-11-19, 10:55:04,VALID,918.896,VALID,0,VALID,77.1795,VALID,434.814,VALID,25.0855,VALID,49,VALID,0,
2012-11-19, 10:56:04,VALID,918.891,VALID,0,VALID,79.0015,VALID,477.361,VALID,25.1441,VALID,43,VALID,0,
2012-11-19, 10:57:04,VALID,918.875,VALID,0,VALID,76.0207,VALID,411.715,VALID,25.185,VALID,56,VALID,0,
2012-11-19, 10:58:04,VALID,918.874,VALID,0,VALID,76.1656,VALID,381.094,VALID,25.1264,VALID,35,VALID,0,
2012-11-19, 10:59:04,VALID,918.861,VALID,0,VALID,76.7983,VALID,364.333,VALID,25.0874,VALID,25,VALID,0,
2012-11-19, 11:00:04,VALID,918.86,VALID,0,VALID,77.1413,VALID,357.242,VALID,25.1069,VALID,35,VALID,0,
2012-11-19, 11:01:04,VALID,918.863,VALID,0,VALID,77.0346,VALID,369.705,VALID,25.2046,VALID,33,VALID,0,
2012-11-19, 11:02:04,VALID,918.855,VALID,0,VALID,76.6687,VALID,406.88,VALID,25.3022,VALID,26,VALID,0,
2012-11-19, 11:03:04,VALID,918.857,VALID,0,VALID,76.9584,VALID,397.532,VALID,25.3218,VALID,23,VALID,0,
2012-11-19, 11:04:04,VALID,918.883,VALID,0,VALID,74.9001,VALID,424.178,VALID,25.398,VALID,9,VALID,0,
2012-11-19, 11:05:04,VALID,918.853,VALID,0,VALID,72.1937,VALID,424.822,VALID,25.4175,VALID,317,VALID,0,
2012-11-19, 11:06:04,VALID,918.858,VALID,0,VALID,72.8494,VALID,459.096,VALID,25.4585,VALID,339,VALID,0,
2012-11-19, 11:07:04,VALID,918.848,VALID,0,VALID,74.0234,VALID,345.208,VALID,25.4585,VALID,87,VALID,0,
2012-11-19, 11:08:04,VALID,918.816,VALID,0,VALID,75.0906,VALID,333.175,VALID,25.437,VALID,40,VALID,0,
2012-11-19, 11:09:04,VALID,918.812,VALID,0,VALID,72.1404,VALID,311.902,VALID,25.437,VALID,42,VALID,0,
2012-11-19, 11:10:04,VALID,918.808,VALID,0,VALID,74.031,VALID,313.084,VALID,25.3589,VALID,2,VALID,0,
2012-11-19, 11:11:04,VALID,918.795,VALID,0,VALID,74.5341,VALID,322.538,VALID,25.2808,VALID,74,VALID,0,
2012-11-19, 11:12:04,VALID,918.789,VALID,0,VALID,75.4032,VALID,337.902,VALID,25.2632,VALID,7,VALID,0,
2012-11-19, 11:13:04,VALID,918.751,VALID,0,VALID,73.2229,VALID,356.275,VALID,25.2027,VALID,300,VALID,0,
2012-11-19, 11:14:04,VALID,918.74,VALID,0,VALID,74.2826,VALID,370.135,VALID,25.2808,VALID,35,VALID,0,
2012-11-19, 11:15:04,VALID,918.72,VALID,0,VALID,74.1758,VALID,372.391,VALID,25.3804,VALID,26,VALID,0,
2012-11-19, 11:16:04,VALID,918.699,VALID,0,VALID,73.5965,VALID,390.549,VALID,25.3804,VALID,344,VALID,0,
2012-11-19, 11:17:04,VALID,918.701,VALID,0,VALID,75.3422,VALID,410.533,VALID,25.3198,VALID,2,VALID,0,
2012-11-19, 11:18:04,VALID,918.685,VALID,0,VALID,72.6816,VALID,410.425,VALID,25.437,VALID,331,VALID,0,
2012-11-19, 11:19:04,VALID,918.66,VALID,0,VALID,75.5709,VALID,425.145,VALID,25.3784,VALID,86,VALID,0,
2012-11-19, 11:20:04,VALID,918.641,VALID,0,VALID,74.7933,VALID,448.567,VALID,25.3003,VALID,351,VALID,0,
2012-11-19, 11:21:04,VALID,918.662,VALID,0,VALID,74.8848,VALID,495.411,VALID,25.3589,VALID,29,VALID,0,
2012-11-19, 11:22:04,VALID,918.657,VALID,0,VALID,74.8619,VALID,485.634,VALID,25.4761,VALID,29,VALID,0,
2012-11-19, 11:23:04,VALID,918.624,VALID,0,VALID,74.1225,VALID,489.609,VALID,25.3394,VALID,320,VALID,0,
2012-11-19, 11:24:04,VALID,918.581,VALID,0,VALID,75.8377,VALID,518.189,VALID,25.2222,VALID,15,VALID,0,
2012-11-19, 11:25:04,VALID,918.573,VALID,0,VALID,76.8212,VALID,492.08,VALID,25.185,VALID,24,VALID,0,
2012-11-19, 11:26:04,VALID,918.57,VALID,0,VALID,76.5772,VALID,498.742,VALID,25.2827,VALID,326,VALID,0,
2012-11-19, 11:27:04,VALID,918.542,VALID,0,VALID,75.0678,VALID,517.329,VALID,25.478,VALID,347,VALID,0,
2012-11-19, 11:28:04,VALID,918.534,VALID,0,VALID,73.9853,VALID,577.496,VALID,25.437,VALID,29,VALID,0,
2012-11-19, 11:29:04,VALID,918.474,VALID,0,VALID,74.3359,VALID,645.614,VALID,25.4956,VALID,14,VALID,0,